NOAA 16 DEB, 41147

Orbit data source: Space-Track

NOAA 16 DEB, 41147 is space debris in SSO originally from a launch on Thu, 21 Sep 2000 UTC launched from the Air Force Western Test Range (AFWTR). Debris objects in space refer to the collection of defunct objects orbiting the Earth. Examples of debris include non-operational satellites, rocket bodies, and fragments generated from explosions, collisions, or faulty payload assembly.

Loading next visibility...
Identifier
41147, 2000-055CE
Orbit
SSO
Country
Flag of USUS
Related business
Manufacturer
Unknown
Mission
Spacecraft
Bus & Motor
Unknown
Mass
Unknown
Launch date (UTC)
2000-09-21 (26 years ago)
Launch vehicle
Unknown
Launch site
Air Force Western Test Range (AFWTR)
Object type
Payload
Rocket body
Debris
Shape & HBR
Unknown shape, 0.1 m
Radar Cross Section
Medium (>0.1 m² and <1 m²)

Expand to show TLE details & history
Last TLE update: 17 hours ago

TLE from 17 hours ago
0 NOAA 16 DEB
1 41147U 00055CE  26206.35753324  .00003968  00000-0  19520-2 0  9990
2 41147  98.9485 248.2402 0062958 313.1216  46.4702 14.17164123543983
Epoch: 2026-07-25T08:34Z
TLE epoch observation values (Epoch: 2026-07-25T08:34:50.871Z)
Latitude
-0.00007°
Longitude
176.45728°
Altitude
806.731 km
Speed
7.466 km/s
True Right ascension
16h 32m 57s
True Declination
0° 00' 00"
Sunlit
Object was in full shadow at epoch
Visualization orbit readout
Latitude
Unknown
Longitude
Unknown
Altitude
Unknown
Speed
Unknown
Apparent Right ascension
Unknown
Apparent Declination
Unknown
Sunlit
N/A
Visualization observer readout
Local Sidereal Time
14:24:58
Azimuth
Unknown
Elevation
Unknown
Doppler factor
Unknown
Orbital elements
Apogee altitude
877.528 km
Perigee altitude
786.739 km
Semi-major axis
7,210.27 km
Eccentricity
0.0063
Inclination
98.9485°
RAAN
248.2402°
Arg. of periapsis
313.1216°
True anomaly
46.9961°
Mean anomaly
46.4702°
Eccentric anomaly
46.73287°
Mean motion
3.545 °/min
Orbital period
101.55 mins
BSTAR
0.001952
Loading maneuver chart data...
Computing Atmospheric mass density...

Documentation

Showing up to 5 results
|